Tracking 19242 objects as of 16-Aug-2018
HD Live streaming from Space Station
objects crossing your sky now

FENGYUN 1C DEB

Track FENGYUN 1C DEB now!
10-day predictions


NORAD ID: 30234
Int'l Code: 1999-025WT
Perigee: 803.3 km
Apogee: 904.0 km
Inclination: 98.9 °
Period: 101.9 minutes
Semi major axis: 7224 km
RCS: 0.037 m2 (small)
Launch date: May 10, 1999
Source: People's Republic of China (PRC)
Launch site: Taiyaun Space Center, China (TSC)

Note: This is SATELLITE DEBRIS
aabbcc
Your satellite tracking list
Your tracking list is empty




NASA's NSSDC Master Catalog

Two Line Element Set (TLE):
1 30234U 99025WT  18227.95843736 +.00000084 +00000-0 +65975-4 0  9990
2 30234 098.8757 258.0448 0069712 149.9327 286.5850 14.13766293596241
Source of the keplerian elements: AFSPC